Location: Kielce
(50.8833°N, 20.6167°E)
Time: 15:07:05
(UTC+01:00)

ISS - Visible Passes

Search period start: 20 February 2019 00:00
Search period end: 02 March 2019 00:00
Orbit: 403 x 411 km, 51.6° (Epoch: 21 February)

Date Brightness Start Highest point End Pass type
(mag) Time Alt. Az. Time Alt. Az. Time Alt. Az.
22 Feb -0.3 05:53:21 10° SE 05:53:37 10° SE 05:53:53 10° SE visible
24 Feb -1.2 05:44:20 10° SSW 05:46:46 19° SE 05:49:13 10° E visible
25 Feb -0.9 04:54:00 10° SSE 04:55:29 13° SE 04:56:59 10° ESE visible
26 Feb -2.4 05:37:00 10° SW 05:40:01 35° SSE 05:43:02 10° E visible
27 Feb -1.8 04:46:37 14° SSW 04:48:37 23° SE 04:51:17 10° E visible
28 Feb -1.3 03:57:20 15° SE 03:57:20 15° SE 03:59:17 10° ESE visible
28 Feb -3.4 05:30:05 10° WSW 05:33:18 59° SSE 05:36:32 10° E visible
01 Mar -2.9 04:40:40 29° SSW 04:41:49 41° SSE 04:44:55 10° E visible
